Overview Statistics Trail Chart Weather Telemetry Raw packets
 

This is the latest recevied weather packets stored in our database for station/object ES0THZ-13. If no packets are shown the sender has not sent any weather packets the latest 10 day(s).

<< 12 13 14 15 16 17 18 >>
Time Temp. Humidity Pressure Rain* Wind** Luminosity Snow
1788275346 18.89° C 89% 1003.5 hPa - - - -
1788274299 18.89° C 89% 1004.4 hPa - - - -
1788273286 18.89° C 89% 1004.4 hPa - - - -
1788272251 18.89° C 89% 1003.2 hPa - - - -
1788271261 18.89° C 88% 1003.1 hPa - - - -
1788270296 19.44° C 87% 1002.9 hPa - - - -
1788269156 19.44° C 87% 1003.5 hPa - - - -
1788268091 20.56° C 86% 1003 hPa - - - -
1788267000 20.56° C 85% 1003.6 hPa - - - -
1788265876 20.56° C 85% 1003.2 hPa - - - -
1788264797 18.33° C 87% 1003.4 hPa - - - -
1788263636 16.67° C 88% 1003.3 hPa - - - -
1788262566 17.22° C 87% 1004.7 hPa - - - -
1788261396 18.33° C 87% 1004 hPa - - - -
1788260366 18.89° C 86% 1004.6 hPa - - - -
1788259221 19.44° C 86% 1003.7 hPa - - - -
1788258031 21.11° C 85% 1003.4 hPa - - - -
1788256996 23.33° C 84% 1004.1 hPa - - - -
1788255866 23.89° C 85% 1004.4 hPa - - - -
1788254766 22.78° C 86% 1004.5 hPa - - - -
1788253656 20° C 88% 1004.2 hPa - - - -
1788252641 20° C 88% 1004.6 hPa - - - -
1788251591 20.56° C 88% 1004 hPa - - - -
1788250630 19.44° C 90% 1004.6 hPa - - - -
1788249546 18.89° C 90% 1003.8 hPa - - - -

* Rain since midnight (hover to see other rain measurements)
** Current wind speed in m/s (hover to see current wind gust speed)